User: anonymous
Location: Caltech
(34.1382°N, 118.1253°W)
Time: 17:22:32
(UTC-07:00)
Language:

HO-68 - Orbit

View from above orbital plane
View from above orbital plane
View from above satellite
View from above satellite

Ground track
Ground track

The orbit data is extracted from the following two-line orbital elements,

1 36122U 09072B   14213.18186835 -.00000043  00000-0  00000+0 0  8168
2 36122 100.2451 263.6814 0007798 133.3280 226.8498 13.16317120222358
Epoch (UTC): 01 August 2014 04:21:53
Eccentricity: 0.0007798
inclination: 100.2451°
perigee height: 1193 km
apogee height: 1205 km
right ascension of ascending node: 263.6814°
argument of perigee: 133.3280°
revolutions per day: 13.16317120
mean anomaly at epoch: 226.8498°
orbit number at epoch: 22235

The dashed part of the orbit path shows where the satellite is in the earth's shadow,  

DLR